Hourly Data Report for July 26, 2005

TORONTO CITY
ONTARIO

43°40'00.000" N
79°24'00.000" W
112.50 m
6158355
71508
XTO

Download Data

Hourly Data (July 2005)
Hourly Data Report for July 26, 2005
TIME
LST
Temp Definition
°C
Dew Point Definition
°C
Rel Hum Definition
%
Precip. Amount Definition
mm

Wind Dir Definition
10's deg

Wind Spd Definition
km/h
Visibility Definition
km
Stn Press Definition
kPa
Hmdx Definition


Wind Chill Definition


Weather Definition


00:00 24.4 14.2 53   LegendMM LegendMM   99.74 28   LegendNANA
01:00 22.4 14.1 59   LegendMM LegendMM   99.75 26   LegendNANA
02:00 21.5 14.6 65   LegendMM LegendMM   99.67 25   LegendNANA
03:00 21.0 14.7 67   LegendMM LegendMM   99.68 25   LegendNANA
04:00 22.2 15.6 66   LegendMM LegendMM   99.65 27   LegendNANA
05:00 21.5 16.9 75   LegendMM LegendMM   99.61 27   LegendNANA
06:00 22.8 18.2 75   LegendMM LegendMM   99.55 29   LegendNANA
07:00 23.9 20.5 81   LegendMM LegendMM   99.48 32   LegendNANA
08:00 24.1 22.7 92   LegendMM LegendMM   99.52 34   LegendNANA
09:00 24.0 23.0 94   LegendMM LegendMM   99.40 34   LegendNANA
10:00 24.4 23.3 94   LegendMM LegendMM   99.40 35   LegendNANA
11:00 24.9 23.1 90   LegendMM LegendMM   99.28 35   LegendNANA
12:00 25.0 23.2 90   LegendMM LegendMM   99.25 35   LegendNANA
13:00 27.5 24.5 84   LegendMM LegendMM   99.19 39   LegendNANA
14:00 26.4 24.2 88   LegendMM LegendMM   99.20 38   LegendNANA
15:00 25.8 24.3 91   LegendMM LegendMM   99.11 37   LegendNANA
16:00 25.0 22.9 88   LegendMM LegendMM   99.15 35   LegendNANA
17:00 24.0 23.2 95   LegendMM LegendMM   99.00 34   LegendNANA
18:00 25.6 23.5 88   LegendMM LegendMM   99.11 36   LegendNANA
19:00 25.9 23.3 86   LegendMM LegendMM   99.16 36   LegendNANA
20:00 24.3 22.4 89   LegendMM LegendMM   99.19 34   LegendNANA
21:00 23.6 22.2 92   LegendMM LegendMM   99.24 33   LegendNANA
22:00 24.3 22.5 90   LegendMM LegendMM   99.33 34   LegendNANA
23:00 22.0 19.4 85   LegendMM LegendMM   99.39 29   LegendNANA

Notes on Data Quality.

Legend

  • E = Estimated
  • M = Missing
  • NA = Not Available*
  • [empty] = Indicates an unobserved value
Date modified: